Regional Weather Roundup
Issued by NWS

Home | Current Version | Previous Version | Graphics & Text | Print | Product List | Glossary On
Versions: 1 2 3 4 5 6 7 8 9 10 11 12 13 14 15 16 17 18 19 20 21 22 23 24 25 26 27 28 29 30 31 32 33 34 35 36 37 38 39 40 41 42 43 44 45 46 47 48 49 50
474
ASUS43 KMKX 250210
RWRWI

WISCONSIN REGIONAL WEATHER ROUNDUP
NATIONAL WEATHER SERVICE MILWAUKEE/SULLIVAN WI
800 PM CST FRI NOV 24 2017

NOTE: "FAIR" INDICATES FEW OR NO CLOUDS BELOW 12,000 FEET WITH NO
SIGNIFICANT WEATHER AND/OR OBSTRUCTIONS TO VISIBILITY.

WIZ001-002-006>008-014>016-023>028-250300-
NORTHWEST WISCONSIN

CITY           SKY/WX    TMP DP  RH WIND       PRES   REMARKS
SUPERIOR ARPT  CLOUDY    41  37  84 W12       29.55R
ASHLAND        CLOUDY    41  36  82 W8        29.53R
HAYWARD        CLOUDY    42  36  79 VRB6      29.56R
SIREN          CLEAR     39  36  89 W7        29.60R WCI  34
CUMBERLAND     CLEAR     39  36  87 NW9       29.58R WCI  33
RICE LAKE      PTCLDY    40  38  93 W8        29.59R WCI  35
CHETEK         MOCLDY    41  39  93 W8        29.58R
LADYSMITH      CLOUDY    43  38  83 NW15G23   29.56R
EAU CLAIRE     CLEAR     43  39  86 W7        29.58R
MENOMONIE      PTCLDY    42  40  93 W8        29.60R
NEW RICHMOND   CLEAR     41  35  79 W13       29.62R
OSCEOLA        CLEAR     42  36  78 W12       29.65R
$$

WIZ003>005-009-010-017-018-250300-
NORTH CENTRAL WISCONSIN

CITY           SKY/WX    TMP DP  RH WIND       PRES   REMARKS
MANITOWISH WTR CLOUDY    39  39 100 NW12G24   29.48R WCI  32
ARBOR VITAE    PTCLDY    42  40  93 NW12G20   29.47R
WOODRUFF       PTCLDY    42  40  93 NW12G20   29.47R
RHINELANDER    MOCLDY    42  41  96 W10G20    29.46R
EAGLE RIVER    CLOUDY    40  40  99 NW10G18   29.44R WCI  34
LAND O LAKES   CLOUDY    40  39  93 NW13G21   29.46R WCI  33
PHILLIPS       CLOUDY    40  39  97 NW9       29.50R WCI  34
TOMAHAWK       CLOUDY    40  39  95 W9        29.49R WCI  34
MEDFORD        CLOUDY    41  40  95 NW13      29.51R
MERRILL        CLOUDY    43  42  97 W5        29.48R
$$

WIZ029-030-035-036-043>047-250300-
CENTRAL WISCONSIN

CITY           SKY/WX    TMP DP  RH WIND       PRES   REMARKS
WAUSAU         CLOUDY    45  42  89 NW7       29.47R
MOSINEE        LGT RAIN  45  45 100 NW8G15    29.49R
MARSHFIELD     PTCLDY    43  40  89 NW12      29.50R
STEVENS POINT  DRIZZLE   46  46 100 NW8       29.48R
WAUPACA        LGT RAIN  53  46  79 W8        29.47R
WAUTOMA        LGT RAIN  52  45  77 W13       29.48R
WISC RAPIDS    LGT RAIN  49  46  90 NW13      29.50R
CAMP DOUGLAS   CLOUDY    50  48  93 NW14      29.51R
$$

WIZ011>013-019>022-031-037>040-048>050-250300-
NORTHEAST WISCONSIN

CITY           SKY/WX    TMP DP  RH WIND       PRES   REMARKS
ANTIGO         CLOUDY    42  40  95 NW6       29.45R
SHAWANO        LGT RAIN  51  46  83 W7        29.44R
OCONTO         CLOUDY    50  46  85 W12G17    29.42R
STURGEON BAY   RAIN      51  45  79 W14G21    29.41R
GREEN BAY      RAIN      52  47  83 W16G26    29.43R
MANITOWOC      CLOUDY    55  40  56 W9        29.42R
APPLETON       LGT RAIN  52  43  71 W12       29.43R
CLINTONVILLE   LGT RAIN  50  45  81 W9        29.44R
OSHKOSH        CLOUDY    54  42  64 W14       29.44R
$$

WIZ032>034-041-042-053>061-250300-
SOUTHWEST WISCONSIN

CITY           SKY/WX    TMP DP  RH WIND       PRES   REMARKS
LA CROSSE      CLEAR     49  44  83 NW13      29.57R
SPARTA         MOCLDY    49  46  88 NW15      29.56R
VIROQUA        CLOUDY    49  48  97 NW14G22   29.54R
BOSCOBEL       MOCLDY    56  42  59 NW5       29.54R
PRAIRIE DU CHI CLOUDY    55  42  62 NW17G25   29.56R
PLATTEVILLE    MOCLDY    53  43  67 W8        29.54R
$$

WIZ056-057-062-063-064-067-068-250300-
SOUTH CENTRAL WISCONSIN

CITY           SKY/WX    TMP DP  RH WIND       PRES   REMARKS
REEDSBURG      CLOUDY    52  44  74 W8        29.50R
BARABOO/DELLS  LGT RAIN  53  42  66 W12G22    29.50R
LONE ROCK      CLOUDY    55  45  68 NW10G22   29.52R
MINERAL POINT  CLOUDY    54  43  66 NW8       29.52R
MADISON        CLOUDY    56  41  57 W7        29.48R
MIDDLETON      CLOUDY    56  41  56 NW7       29.49R
WATERTOWN      CLOUDY    54  41  61 W8        29.46R
MONROE         MOCLDY    54  39  58 W12       29.50R
JANESVILLE     CLEAR     54  39  58 W8        29.48R
$$

WIZ051-052-058>065-066-070>072-250300-
SOUTHEAST WISCONSIN

CITY           SKY/WX    TMP DP  RH WIND       PRES   REMARKS
MILWAUKEE      CLOUDY    57  40  52 W8        29.45R
WAUKESHA       CLEAR     52  37  58 W13       29.46R
MILWAUKEE/TIMM CLEAR     54  36  50 W9        29.44R
RACINE         CLOUDY    57  40  52 SW13G20   29.46R
BURLINGTON     CLOUDY    56  45  66 W8        29.47R
KENOSHA        CLOUDY    56  40  55 SW13      29.45R
FOND DU LAC    CLOUDY    56  39  53 W10       29.44R
SHEBOYGAN      CLOUDY    56  41  57 W7        29.42R
WEST BEND      CLOUDY    54  37  54 W9        29.43R
JUNEAU         CLOUDY    54  40  60 W5        29.47R
$$

LSZ147-162-250300-
LAKE SUPERIOR

STATION/POSITION TIME  TEMP    WIND        PRES    WAVE
                       AIR SEA DIR/SP/G            HT/PER
                 (UTC) (F)     (DEG/KT/KT) (MB)    (FT/S)
DEVILS ISLAND    0200   42     280/ 17/ 19  999.2R
SAXON HARBOR     0130   43     260/  4/  6  999.0R
$$

LMZ867-665-643>646-250300-
LAKE MICHIGAN

STATION/POSITION TIME  TEMP    WIND        PRES    WAVE
                       AIR SEA DIR/SP/G            HT/PER
                 (UTC) (F)     (DEG/KT/KT) (MB)    (FT/S)
N MID LAKE BUOY  0150   47 47  240/ 17/ 21  994.9R  10/ 9
NORTHPORT PIER   0140   50     270/  4/ 13  994.9R
KEWAUNEE LAKESHO 0142   55     280/  5/  8  994.8R
SHEBOYGAN LAKESH 0200   57     290/ 10/ 12  996.1R
PORT WASHINGTON  0140   54     250/  3/  4  997.6R
MILWAUKEE LAKESH 0150   57     270/  7/ 11   N/A
S MID LAKE BUOY  0050   51 47  210/ 21/ 23  997.0R   5/ 6
KENOSHA   LAKESH 0200   58     240/  9/ 13  997.6
$$

TC  - TEMPERATURE IN CELSIUS
VSB - VISIBILITY IN STATUTE MILES
WCI - WIND CHILL INDEX
HX  - HEAT INDEX





USA.gov is the U.S. government's official web portal to all federal, state and local government web resources and services.